• Join FlightAware (Why Join?)
  • Login
  • US Flag GB Flag 
13:03 EDT


 

Airport Tracker/Info


-or-


 

Live Flight TrackerFlight Track Log ✈ N30VP ✈ 10-Feb-2014 ✈ KAFP - KTPA

Flight Track Log - Related Links

Times and Time Zones

All times are in EST time to prevent confusion due to time zone crossing. See the N30VP flight status page for this flight to view local times or setup timezone preferences in your user account.

Time Position Orientation Groundspeed Altitude Reporting Facility
EST Latitude Longitude Course Direction KTS MPH feet Rate Location/Type
10:54 35.0100 -80.1539 215° Southwest 219 252 3,500  Level Atlanta Center
10:55 34.9514 -80.2172 222° Southwest 247 284 8,600 4,200 Climbing Atlanta Center
10:56 34.9133 -80.2697 229° Southwest 230 265 12,000 1,440 Climbing Atlanta Center
10:59 34.5457 -80.2482 200° South  Level FlightAware Approximate
10:59 34.6158 -80.3419 191° South 360 414 15,000  Level Jacksonville Center
11:00 34.5139 -80.3553 186° South 366 421 15,000  Level Jacksonville Center
11:01 34.4097 -80.3608 183° South 372 428 15,000 1,800 Level Jacksonville Center
11:02 34.3117 -80.3636 181° South 372 428 18,600 3,360 Climbing Jacksonville Center
11:03 34.2181 -80.3764 186° South 372 428 21,800 2,340 Climbing Jacksonville Center
11:04 34.1336 -80.4314 208° Southwest 369 425 23,300 2,100 Climbing Jacksonville Center
11:05 34.0431 -80.4842 206° Southwest 357 411 26,000 2,400 Climbing Jacksonville Center
11:06 33.9564 -80.5392 208° Southwest 352 405 28,100 2,220 Climbing Jacksonville Center
11:07 33.8572 -80.5992 207° Southwest 361 415 30,500 1,980 Climbing Jacksonville Center
11:08 33.7686 -80.6542 207° Southwest 361 415 32,100 1,500 Climbing Jacksonville Center
11:09 33.6797 -80.7086 207° Southwest 361 415 33,600 600 Climbing Jacksonville Center
11:11 33.4917 -80.8206 206° Southwest 366 421 34,000 120 Climbing Jacksonville Center
11:12 33.3947 -80.8775 206° Southwest 377 434 34,000  Level Jacksonville Center
11:13 33.2975 -80.9367 207° Southwest 382 440 34,000  Level Jacksonville Center
11:14 33.2044 -80.9958 208° Southwest 382 440 34,000 180 Level Jacksonville Center
11:16 33.0119 -81.1089 207° Southwest 382 440 34,600 300 Climbing Jacksonville Center
11:17 32.9189 -81.1628 206° Southwest 382 440 35,000 180 Climbing Jacksonville Center
11:18 32.8214 -81.2192 206° Southwest 382 440 35,000 240 Level Jacksonville Center
11:19 32.7261 -81.2800 208° Southwest 382 440 35,500 480 Climbing Jacksonville Center
11:20 32.6331 -81.3336 206° Southwest 377 434 36,000 240 Climbing Jacksonville Center
11:21 32.5481 -81.3842 207° Southwest 377 434 36,000  Level Jacksonville Center
11:22 32.4381 -81.4478 206° Southwest 398 458 36,000  Level Jacksonville Center
11:23 32.3467 -81.5008 206° Southwest 403 464 36,000  Level Jacksonville Center
11:24 32.2389 -81.5639 206° Southwest 403 464 36,000  Level Jacksonville Center
11:25 32.1372 -81.6217 206° Southwest 403 464 36,000  Level Jacksonville Center
11:26 32.0458 -81.6744 206° Southwest 403 464 36,000  Level Jacksonville Center
11:28 31.8444 -81.7919 206° Southwest 408 470 36,000  Level Jacksonville Center
11:29 31.7342 -81.8544 206° Southwest 403 464 36,000  Level Jacksonville Center
11:30 31.6325 -81.9167 208° Southwest 410 472 36,000  Level Jacksonville Center
11:31 31.5431 -81.9686 206° Southwest 405 466 36,000  Level Jacksonville Center
11:32 31.4308 -82.0331 206° Southwest 407 468 36,000  Level Jacksonville Center
11:33 31.3225 -82.0803 200° South 413 475 36,000  Level Jacksonville Center
11:34 31.2122 -82.1225 198° South 413 475 36,000  Level Jacksonville Center
11:35 31.1058 -82.1694 201° Southwest 413 475 36,000  Level Jacksonville Center
11:36 30.9956 -82.2117 198° South 413 475 36,000  Level Jacksonville Center
11:37 30.8872 -82.2558 199° South 413 475 36,000  Level Jacksonville Center
11:39 30.6725 -82.3467 216° Southwest 408 470 36,000  Level Jacksonville Center
11:40 30.5642 -82.3981 202° Southwest 408 470 36,000 -120 Level Jacksonville Center
11:41 30.4472 -82.4083 184° South 408 470 35,800 -960 Descending Jacksonville Center
11:42 30.3386 -82.3992 176° South 428 493 34,100 -1,680 Descending Jacksonville Center
11:43 30.2217 -82.3925 177° South 428 493 32,500 -720 Descending Jacksonville Center
11:45 29.9711 -82.3769 333° Northwest 422 486 32,000 -240 Descending Jacksonville Center
11:46 29.8478 -82.3706 177° South 433 498 31,800 -1,200 Descending Jacksonville Center
11:47 29.7289 -82.3639 177° South 433 498 29,700 -1,980 Descending Jacksonville Center
11:48 29.6267 -82.3597 178° South 433 498 27,900 -2,040 Descending Jacksonville Center
11:49 29.5117 -82.3436 173° South 423 487 25,700 -2,100 Descending Jacksonville Center
11:50 29.4008 -82.3206 170° South 418 481 23,700 -1,800 Descending Jacksonville Center
11:51 29.2922 -82.2972 169° South 407 468 22,200 -1,860 Descending Jacksonville Center
11:52 29.1794 -82.2742 170° South 407 468 20,000 -2,100 Descending Jacksonville Center
11:53 29.0686 -82.2631 175° South 407 468 18,100 -1,800 Descending Jacksonville Center
11:54 28.9622 -82.2636 180° South 401 461 16,500 -1,620 Descending Jacksonville Center
11:55 28.8642 -82.2619 179° South 380 437 14,900 -1,440 Descending Jacksonville Center
11:57 28.7000 -82.2667 181° South 354 407 13,000 -960 Descending Tampa TRACON
11:59 28.5000 -82.2500 180° South 365 420 11,600 -600 Descending Tampa TRACON
12:01 28.3167 -82.3000 194° South 340 391 10,800 -720 Descending Tampa TRACON
12:02 28.2333 -82.3333 199° South 271 312 9,500 -1,680 Descending Tampa TRACON
12:04 28.1000 -82.3833 221° Southwest 258 297 6,100 -1,560 Descending Tampa TRACON
12:05 28.0500 -82.4167 210° Southwest 248 285 5,000 -600 Descending Tampa TRACON
12:06 27.9667 -82.4333 190° South 248 285 5,000 -300 Level Tampa TRACON
12:07 27.9167 -82.4333 180° South 215 247 4,500 -1,020 Descending Tampa TRACON
12:08 27.8500 -82.4500 192° South 221 254 3,000 -960 Descending Tampa TRACON
12:09 27.8333 -82.5167 254° West 204 235 2,600 -540 Descending Tampa TRACON
12:10 27.8833 -82.5500 329° Northwest 198 228 1,900 -840 Descending Tampa TRACON
12:11 27.9333 -82.5500 360° North 167 192 1,000 -900 Descending Tampa TRACON
12:13 27.9667 -82.5167 66° East  Level FlightAware Approximate
12:20 27.9755 -82.5332 66° East  Level Estimated
12:21 27.9755 -82.5332 66° East  Level Estimated